Погода в Тёсовском

Россия / Новгородская область     58°47′29″N   30°52′32″E
темп.,
°C
ветер,
м/с
пор.,
м/с
влажн.,
%
обл.,
%
осадки,
мм/ч
давл.,
гПа
погр.,
м
24 июля, сб
сб2400:00+14сз2362100 0.0 101265
03:00+13сз1168100 0.0 101321
06:00+13с127320 0.0 101350
09:00+17с125458 0.0 1014899
12:00+20сз243752 0.0 10152295
15:00+21зсз2435100 0.0 10142324
18:00+19юз3652100 0.0 1015269
21:00+16зсз22685 0.0 101646
25 июля, вс
вс2500:00+12с11645 0.0 101710
03:00+11з11665 0.0 101810
06:00+12юз11672 0.0 101910
09:00+19юз22475 0.0 1019393
12:00+24юз22355 0.0 10191518
15:00+25юз223168 0.0 10192565
18:00+25зюз223718 0.0 10192091
21:00+18ююз226768 0.0 101933
26 июля, пн
пн2600:00+18ююз1257100 0.0 102037
03:00+15ю117010 0.0 102111
06:00+15ю11799 0.0 102112
09:00+22ююз12571 0.0 1022376
12:00+27ю12405 0.0 10221512
15:00+28ююз223472 0.0 10212606
18:00+28ю223842 0.0 10202260
21:00+21ю22645 0.0 102026
27 июля, вт
вт2700:00+19ююв226197 0.0 102136
03:00+19ююв126398 0.0 102125
06:00+18юв227614 0.0 102130
09:00+22ю236387 0.0 1021242
12:00+28ю22414 0.0 10201060
15:00+29юз223471 0.0 10192321
18:00+29ююв23350 0.0 10182338
21:00+22ю22594 0.0 101728
28 июля, ср
ср2800:00+22ююв265098 0.0 1016123
03:00+18ююв27795 0.0 1015144
06:00+18ю288213 0.0 1013163
09:00+24ююв3656100 0.0 1012380
12:00+23ю3764100 0.0 1011412
15:00+27ююз375044 0.0 10091600
18:00+25юз4105997 0.1 1008989
21:00+21ююз4106691 0.1 1008506